Location: Unspecified
(42.3650°N, 71.1030°W)
Time: 04:00:56
(UTC+00:00)

Explorer 11/Cluster Stage 4 - Pass Details

Date: 28 June 2024
Orbit: 465 x 1216 km, 28.8° (Epoch: 13 July)

Event Time Altitude Azimuth Distance (km) Brightness Sun altitude
Rises 01:38:22 0° 254° (WSW) 4,029 10.6 -11.2°
Reaches altitude 10° 01:41:37 10° 243° (WSW) 3,120 9.8 -11.6°
Maximum altitude 01:48:01 27° 189° (S) 2,125 8.4 -12.4°
Enters shadow 01:52:33 16° 145° (SE) 2,661 8.6 -12.9°
Drops below altitude 10° 01:54:23 10° 135° (SE) 3,098 - -13.2°
Sets 01:57:36 0° 124° (SE) 3,995 - -13.5°
